Location: The D'Auria's Ocala Star Observatory
(29.0276°N, 82.1742°W)
Time: 15:07:06
(UTC-04:00)

Daily predictions for brighter satellites

Satellite Brightness Start Highest point End
(mag) Time Altitude Azimuth Time Altitude Azimuth Time Altitude Azimuth
OAO 2 Rocket 3.3 20:32:50 10° WSW 20:37:44 79° SSE 20:42:43 10° ENE
Cosmos 1943 Rocket 3.8 20:35:26 10° NNE 20:39:13 18° ENE 20:42:57 10° ESE
Aurora 2 Rocket 4.3 20:34:55 10° WSW 20:42:03 59° SSE 20:51:50 10° E
CZ-3A R/B 3.7 20:34:18 10° S 20:42:12 21° SE 20:45:47 10° E
Okean 1 Rocket 3.1 20:41:29 10° N 20:45:59 84° E 20:50:25 10° S
ALOS 2.7 20:41:30 10° S 20:46:07 65° W 20:50:46 10° NNW
NOSS 2-2 (D) 4.3 20:44:07 10° S 20:47:26 26° ESE 20:50:50 10° NE
Cosmos 1975 Rocket 3.1 20:45:50 10° S 20:50:18 76° E 20:54:47 10° N
Cosmos 773 Rocket 4.5 20:50:00 10° SSE 20:54:44 37° E 20:59:27 10° NE
Cosmos 2315 Rocket 4.2 20:49:21 10° SSE 20:55:21 52° E 21:01:25 10° NNE
Cosmos 1461 3.8 20:53:24 10° NW 20:57:32 49° WSW 21:01:49 10° S
Cosmos 1812 2.7 20:53:43 10° S 20:57:34 80° E 21:01:28 10° N
USA 186 2.5 20:55:01 10° SE 20:58:00 35° ENE 21:01:00 10° N
Cosmos 1745 Rocket 4.1 20:52:07 10° N 20:58:28 84° W 21:04:44 10° S
NOSS 3-2 (A) 4.2 20:52:59 10° NNW 21:00:40 63° ENE 21:08:39 11° SE
CZ-2D R/B 3.2 20:58:16 10° SSE 21:02:04 68° ENE 21:05:52 10° N
NOSS 2-2 (C) 3.6 21:02:17 10° S 21:06:06 45° ESE 21:10:02 10° NE
Spot 2 Rocket 3.5 21:03:13 10° SSE 21:08:15 81° ENE 21:13:18 10° N
GPS 2-05 Rocket1 3.2 21:07:12 10° WNW 21:10:14 46° SSW 21:12:20 18° SE
Cosmos 1536 Rocket 4.2 21:08:06 10° SSE 21:12:01 34° E 21:15:55 10° NNE
Cosmos 372 Rocket 4.1 21:06:57 10° NNW 21:12:08 79° WSW 21:17:14 10° S
Cosmos 1680 Rocket 4.5 21:10:19 10° SSE 21:14:34 26° E 21:18:49 10° NE
ASTRO E2 3.0 21:11:24 10° W 21:15:22 66° N 21:19:14 11° ENE
H-2A R/B 4.1 21:14:30 10° SSW 21:17:58 36° W 21:21:25 10° NNW
Helios 1A 3.3 21:19:48 18° SE 21:22:43 47° ENE 21:26:46 10° N
Resurs 1-3 4.0 21:19:43 10° S 21:24:02 63° WSW 21:28:24 10° NNW
Resurs 01 Rocket 2.5 21:23:37 10° S 21:27:55 48° W 21:32:11 10° NNW
Envisat 3.0 21:26:10 16° SSE 21:30:10 63° ENE 21:35:11 10° N
Cosmos 292 Rocket 4.2 21:25:28 10° SSW 21:30:16 66° WNW 21:35:04 10° N
Cosmos 1544 Rocket 3.4 21:31:47 10° N 21:36:06 71° E 21:38:49 22° SSE
Cosmos 724 4.2 21:30:38 10° NNW 21:36:37 81° ENE 21:40:26 23° SSE
Iridium 4 Rocket 3.9 21:36:26 10° N 21:41:29 66° W 21:46:58 10° S
Cosmos 1666 4.4 21:40:08 10° NNE 21:42:12 18° ENE 21:42:12 18° ENE
Meteor 1-19 Rocket 4.3 21:39:07 11° S 21:44:37 61° E 21:50:19 10° NNE
ASTEX 1 4.1 21:43:58 29° ESE 21:45:18 34° E 21:49:42 10° NNE
Aureole 3 Rocket 4.1 21:44:09 10° S 21:52:01 69° E 21:57:37 10° NNE
Spot 1 4.5 21:55:49 24° S 21:58:38 67° WSW 22:03:05 10° NNW
Cosmos 923 Rocket 4.2 21:54:09 10° SSW 21:59:28 76° WNW 22:04:48 10° NNE
Cosmos 405 Rocket 2.6 21:59:13 37° SSW 22:00:34 80° W 22:04:20 10° N
Cosmos 1455 Rocket 3.3 21:57:16 10° NNW 22:01:35 64° W 22:03:42 29° SSW
Cosmos 1346 4.2 22:03:17 33° N 22:03:17 33° N 22:04:58 10° N
Cosmos 1238 Rocket 4.2 22:00:12 30° SSE 22:03:20 56° E 22:09:53 10° NNE
Cosmos 1975 3.5 22:00:06 10° NNW 22:04:03 52° W 22:06:01 27° SSW
Cosmos 2369 Rocket 3.6 21:59:09 10° NW 22:04:10 33° WSW 22:08:52 12° SSW
YAOGAN 6 2.3 22:05:25 81° E 22:05:25 81° E 22:08:55 10° N
Tiangong 2 2.6 22:04:08 10° W 22:07:05 36° NNW 22:08:38 22° NNE
SAR-Lupe-4 4.4 22:06:12 35° SSW 22:07:14 46° W 22:10:42 10° NNW
Cosmos 1656 Rocket 3.9 22:03:53 10° N 22:09:10 49° ENE 22:10:13 43° ESE
Abrixas 4.4 22:06:53 10° WNW 22:08:28 22° WSW 22:08:28 22° WSW
Cosmos 1939 Rocket 3.6 22:09:19 31° SSW 22:10:41 46° W 22:14:25 10° NNW
ISS -2.3 22:08:04 10° SW 22:09:53 30° WSW 22:09:53 30° WSW
Cosmos 1441 Rocket 3.5 22:15:22 53° NNE 22:15:22 53° NNE 22:18:20 10° NNE
COSMOS 2455 2.8 22:09:56 10° NNW 22:15:57 82° WSW 22:18:01 43° SSE
ERS-1 Rocket 2.8 22:21:30 60° SSE 22:22:26 87° ENE 22:27:28 10° NNW
OAO 2 Rocket 4.2 22:17:57 10° W 22:22:43 46° N 22:25:27 23° NE
Cosmos 1943 Rocket 3.0 22:17:49 10° NNW 22:23:08 45° WSW 22:25:31 29° SSW
NOAA 11 4.1 22:22:31 57° SE 22:23:24 67° ENE 22:28:48 10° N
H-2A R/B 3.3 22:24:04 24° ENE 22:24:04 24° ENE 22:27:26 10° NNE
COSMOS 2406 4.0 22:18:55 10° SW 22:24:28 50° WNW 22:30:01 10° N
Okean 1-7 Rocket 3.5 22:25:22 79° ENE 22:25:22 79° ENE 22:29:40 10° N
Cosmos 2327 Rocket 4.4 22:19:06 10° N 22:25:19 84° E 22:27:15 48° SSE
ARGOS 3.2 22:32:24 57° E 22:32:33 57° ENE 22:37:50 10° N
USA 267 4.0 22:28:26 10° NE 22:32:18 33° E 22:32:18 33° E
Aurora 2 Rocket 4.4 22:28:06 10° W 22:36:52 70° S 22:41:08 41° ESE
CZ-3B Rocket 3.5 22:32:51 10° SW 22:53:53 - E 22:35:28 32° SSW
Cosmos 2082 Rocket 4.2 22:43:04 14° NE 22:43:04 14° NE 22:44:04 10° NE
Cosmos 1743 4.3 22:41:51 10° NNW 22:45:14 31° W 22:45:14 31° W
Cosmos 2181 Rocket 4.2 22:46:01 55° E 22:46:01 55° E 22:51:55 10° NNE
SL-27 R/B 4.5 22:50:50 28° WNW 22:50:50 28° WNW 22:53:40 10° N
CENTAUR R/B 3.1 22:45:31 10° NNW 22:53:44 88° WSW 22:55:43 58° SSE
SPOT 5 4.1 23:13:46 34° NW 23:13:46 34° NW 23:16:30 10° NNW
SPOT 1/Viking Rocket 4.1 23:15:22 55° NNW 23:15:22 55° NNW 23:19:24 10° NNW
Cosmos 1833 Rocket 4.2 23:28:30 27° NNE 23:28:30 27° NNE 23:30:58 10° NNE
Terra 3.5 23:32:52 29° N 23:32:52 29° N 23:35:12 10° N
H-2A R/B 4.3 23:45:08 23° NNW 23:45:08 23° NNW 23:46:53 10° NNW
